Location: *
(43.9900°N, 3.4811°E)
Time: 12:54:30
(UTC+00:00)

Lacrosse 4 Rocket - Pass Details

Date: 25 August 2019
Orbit: 543 x 616 km, 68.0° (Epoch: 21 September)

Event Time Altitude Azimuth Distance (km) Brightness Sun altitude
Rises 22:26:27 0° 338° (NNW) 2,766 6.0 -32.3°
Reaches altitude 10° 22:28:57 10° 351° (N) 1,854 4.8 -32.5°
Enters shadow 22:30:25 18° 6° (N) 1,394 3.9 -32.6°
